Location: Newark
(35.6799°N, 139.7636°E)
Time: 10:42:47
(UTC+00:00)

Explorer 7 - Pass Details

Date: 13 December 2019
Orbit: 485 x 679 km, 50.3° (Epoch: 24 January)

Event Time Altitude Azimuth Distance (km) Brightness Sun altitude
Rises 12:08:01 0° 308° (NW) 3,018 - -55.9°
Reaches altitude 10° 12:10:26 10° 307° (NW) 2,087 - -56.3°
Maximum altitude 12:15:15 75° 223° (SW) 668 - -57.3°
Drops below altitude 10° 12:19:49 10° 137° (SE) 1,981 - -58.2°
Sets 12:22:03 0° 136° (SE) 2,852 - -58.6°
